Preview of NWS' New Version of Forecast
This preview is not operational and should not be used for support decisions.
Latest weather observations around

Baltimore, Baltimore-Washington International Airport (KBWI)

Using English Units (Switch to International System of Units)
Date/ Time (EDT) Wind (mph) Vis. (mi) Weather Sky Cond. Temp (°F) Rel. Humidity Wind Chill (°F) Heat Index (°F) Pressure Precip. (in)
Air Dwpt 6 hour Altimeter (inHg) Sea level (inHg) 1 hr 3 hr 6 hr
Max Min
Jun 24 14:54 5 10 Mostly Cloudy FEW050 SCT180 BKN250 90 68     49%   94 29.84 29.83      
Jun 24 13:54 Calm 10 Mostly Cloudy FEW050 FEW085 SCT180 SCT210 BKN250 91 66     44%   94 29.85 29.84      
Jun 24 12:54 Calm 10 Partly Cloudy FEW050 FEW080 SCT180 SCT250 88 65     47%   90 29.86 29.86      
Jun 24 11:54 3 10 Partly Cloudy FEW080 FEW100 SCT250 86 64     48%   87 29.88 29.87      
Jun 24 10:54 Calm 10 Partly Cloudy FEW075 FEW100 SCT240 83 64     53%   84 29.9 29.89      
Jun 24 09:54 Calm 10 Mostly Cloudy FEW075 FEW095 BKN240 78 63     60%   78 29.9 29.9      
Jun 24 08:54 Calm 10 Partly Cloudy FEW090 SCT240 75 63     66%   75 29.9 29.89      
Jun 24 07:54 WSW 3 10 Mostly Cloudy FEW080 SCT230 BKN250 71 62     73%   71 29.91 29.9      
Jun 24 06:54 Calm 10 Mostly Cloudy SCT160 SCT230 BKN250 69 62     78%     29.9 29.9      
Jun 24 05:54 ESE 3 10 Mostly Cloudy SCT160 BKN250 64 59     84%     29.89 29.89      
Jun 24 04:54 Calm 10 Mostly Clear FEW250 63 59     87%     29.88 29.87      
Jun 24 03:54 Calm 10 Clear CLR 64 59     84%     29.88 29.87      
Jun 24 02:54 WSW 3 10 Clear CLR 65 59     81%     29.89 29.88      
Jun 24 01:54 Calm 10 Clear CLR 69 59     70%     29.9 29.9      
Jun 24 00:54 SW 5 10 Mostly Clear FEW250 69 58     68%     29.92 29.91      
Jun 23 23:54 SW 3 10 Mostly Cloudy BKN250 69 57     65%     29.93 29.93      
Jun 23 22:54 SSW 5 10 Mostly Cloudy BKN250 73 57     57%   73 29.94 29.93      
Jun 23 21:54 Calm 10 Mostly Cloudy BKN250 75 56     52%   75 29.95 29.94      
Jun 23 20:54 SSW 3 10 Mostly Cloudy FEW170 BKN250 78 53     42%   78 29.93 29.93      
Jun 23 19:54 WSW 6 10 Partly Cloudy SCT250 81 54     39%   81 29.93 29.93      
Jun 23 18:54 SSW 5 10 Partly Cloudy SCT250 84 54     36%   83 29.94 29.93      
Jun 23 17:54 W 9 10 Mostly Cloudy BKN250 85 50     30%   83 29.95 29.94      
Jun 23 16:54 W 8 10 Mostly Cloudy FEW070 BKN250 86 54     33%   84 29.96 29.96      
Jun 23 15:54 W 10 10 Partly Cloudy FEW070 SCT250 86 50     29%   84 29.98 29.98      
Jun 23 14:54 W 8 10 Partly Cloudy FEW070 SCT250 84 51     32%   82 29.98 29.98      
Jun 23 13:54 W 9 10 Partly Cloudy FEW070 SCT220 SCT250 84 53     35%   83 30 29.99      
Jun 23 12:54 WSW 6 10 Partly Cloudy FEW070 SCT220 SCT250 83 52     34%   82 30.02 30.02      
Jun 23 11:54 N 10 10 Partly Cloudy FEW070 SCT250 82 50     33%   81 30.05 30.04      
Jun 23 10:54 3 10 Mostly Clear FEW250 81 50     34%   80 30.06 30.06      
Jun 23 09:54 N 7 10 Mostly Clear FEW250 79 51     38%   78 30.08 30.08      
Jun 23 08:54 5 10 Mostly Clear FEW250 75 55     50%   75 30.1 30.09      
Jun 23 07:54 W 3 10 Mostly Clear FEW250 69 55     61%     30.1 30.09      
Jun 23 06:54 NW 3 10 Mostly Clear FEW250 63 56     78%     30.08 30.08      
Jun 23 05:54 NW 3 10 Clear   59 53     81%     30.07 30.06      
Jun 23 04:54 Calm 10 Mostly Clear FEW250 60 54     80%     30.06 30.05      
Jun 23 03:54 W 3 10 Mostly Clear FEW250 60 55     83%     30.07 30.06      
Jun 23 02:54 W 3 10 Clear CLR 59 55     87%     30.06 30.06      
Jun 23 01:54 W 3 10 Mostly Clear FEW075 FEW250 62 55     78%     30.05 30.04      
Jun 23 00:54 Calm 10 Mostly Clear FEW075 61 56     83%     30.05 30.04      
Jun 22 23:54 Calm 10 Clear CLR 67 54     63%     30.04 30.04      
Jun 22 22:54 W 3 10 Mostly Clear FEW080 FEW250 64 55     73%     30.03 30.03      
Jun 22 21:54 Calm 10 Mostly Clear FEW080 FEW250 69 55     61%     30.01 30.01      
Jun 22 20:54 W 5 10 Mostly Clear FEW080 FEW250 75 51     43%   74 30 29.99      
Jun 22 19:54 WNW 5 10 Mostly Clear FEW075 FEW250 78 50     37%   77 29.99 29.98      
Jun 22 18:54 NW 10 10 Partly Cloudy SCT080 SCT250 81 49     33%   80 29.99 29.98      
Jun 22 17:54 NW 10 10 Partly Cloudy SCT080 SCT250 82 48     31%   81 29.98 29.97      
Jun 22 16:54 WNW 9 10 Partly Cloudy SCT080 SCT250 82 49     32%   81 29.98 29.98      
Jun 22 15:54 NW 14 10 Mostly Cloudy BKN080 BKN250 83 50     32%   81 29.98 29.97      
Jun 22 14:54 NW 11 10 Mostly Cloudy BKN070 BKN250 82 49     32%   81 29.98 29.98      
Jun 22 13:54 NW 13 10 Mostly Cloudy BKN070 BKN250 80 49     34%   79 29.98 29.97      
Jun 22 12:54 NW 9 10 Mostly Cloudy SCT070 BKN220 BKN250 80 52     38%   80 29.99 29.98      
Jun 22 11:54 WNW 16 10 Mostly Cloudy SCT050 SCT220 BKN250 80 49     34%   79 30 29.99      
Jun 22 10:54 NW 7 10 Partly Cloudy FEW050 SCT220 SCT250 77 53     43%   76 29.99 29.98      
Jun 22 09:54 NW 6 10 Partly Cloudy SCT220 SCT250 76 53     45%   75 29.98 29.98      
Jun 22 08:54 NNW 7 10 Mostly Cloudy SCT220 BKN250 71 52     51%   70 29.99 29.98      
Jun 22 07:54 NW 8 10 Mostly Cloudy SCT220 BKN250 69 50     51%     29.98 29.97      
Jun 22 06:54 WNW 6 10 Mostly Cloudy SCT220 BKN250 66 49     54%     29.97 29.97      
Jun 22 05:54 WNW 7 10 Partly Cloudy SCT250 60 50     69%     29.96 29.96      
Jun 22 04:54 W 5 10 Mostly Clear FEW190 FEW250 61 50     67%     29.94 29.94      
Jun 22 03:54 Calm 10 Mostly Clear FEW190 FEW250 62 52     70%     29.95 29.94      
Jun 22 02:54 W 3 10 Mostly Clear FEW250 64 53     67%     29.94 29.93      
Jun 22 01:54 Calm 10 Partly Cloudy SCT250 67 52     59%     29.94 29.93      
Jun 22 00:54 Calm 10 Mostly Cloudy BKN250 71 50     47%   70 29.93 29.93      
Jun 21 23:54 WNW 10 10 Mostly Cloudy BKN250 72 51     48%   71 29.93 29.92      
Jun 21 22:54 WNW 9 10 Partly Cloudy SCT250 73 53     50%   72 29.91 29.9      
Jun 21 21:54 WNW 11 10 Mostly Clear FEW090 75 54     48%   74 29.89 29.88      
Jun 21 20:54 WNW 8 10 Mostly Clear FEW065 FEW090 74 56     53%   74 29.86 29.85      
Jun 21 19:54 WNW 9 10 Partly Cloudy FEW070 SCT095 80 56     44%   80 29.84 29.83      
Jun 21 18:54 WNW 10 10 Mostly Cloudy FEW070 BKN100 80 56     44%   80 29.82 29.82      
Jun 21 17:54 WNW 14 10 Partly Cloudy SCT065 SCT095 82 56     41%   82 29.81 29.8      
Jun 21 16:54 WNW 15 10 Partly Cloudy SCT070 83 54     37%   82 29.8 29.8      
Jun 21 15:54   10 Partly Cloudy SCT070 SCT250 84 54     36%   83 29.79 29.78      
May 13 23:54 E 7 6 Fog/Mist OVC008 60 59     96%     30.03 30.03      
May 13 04:44 N 6 6 Fog/Mist BKN012 BKN075 OVC120 63 61     93%     30.07        
May 12 03:54 NNE 7 10 Partly Cloudy SCT140 65 60     84%     30.02 30.01      
May 11 23:54 Calm 10 Mostly Cloudy SCT100 BKN150 65 54     68%     30.06 30.05      
May 11 20:54 E 7 10 Partly Cloudy FEW150 SCT250 72 53     51%   71 30.04 30.03      
May 11 09:54 7 10 Mostly Clear FEW048 FEW250 76 53     45%   75 30.01 30.01      
Jun 12 06:54 WNW 3 10 Mostly Cloudy SCT085 BKN140 BKN200 73 66     79%   74 30.1 30.1      
Jun 11 10:54 W 13 10 Mostly Clear FEW250 87 63     45%   88 30.13 30.12      
Jun 10 01:54 SW 3 10 Mostly Clear FEW120 FEW250 63 55     75%     29.97 29.97      
Jun 09 12:54 WNW 9 10 Partly Cloudy SCT060 78 55     45%   78 29.84 29.84      
Jun 08 02:54 Calm 10 Clear CLR 51 50     96%     30.03 30.02      
Jun 07 15:46 ENE 11 10 Cloudy BKN030 OVC050 64 54     70%     30        
Jun 06 05:54 WNW 8 6 Partly Cloudy FEW080 SCT120 64 63     96%     29.68 29.68